Regional Weather Roundup
Issued by NWS

Home | Current Version | Previous Version | Graphics & Text | Print | Product List | Glossary On
Versions: 1 2 3 4 5 6 7 8 9 10 11 12 13 14 15 16 17 18 19 20 21 22 23 24 25 26 27 28 29 30 31 32 33 34 35 36 37 38 39 40 41 42 43 44 45 46 47 48 49 50
000
ASUS43 KIND 301609
RWRIN

WEATHER ROUNDUP FOR INDIANA
NATIONAL WEATHER SERVICE INDIANAPOLIS IN
1200 PM EDT TUE JUN 30 2015

NOTE: "FAIR" INDICATES FEW OR NO CLOUDS BELOW 12,000 FEET WITH NO
SIGNIFICANT WEATHER AND/OR OBSTRUCTIONS TO VISIBILITY.

* - STATION DOES NOT REPORT WEATHER SUCH AS PRECIPITATION OR FOG.

+ - STATION NOT QUALITY CONTROLLED BY THE NATIONAL WEATHER SERVICE.
    USE DATA WITH CAUTION...ESPECIALLY DEWPOINT AND RELATIVE
    HUMIDITY OBSERVATIONS.

INZ001>003-010>013-019-020-301700-
NORTHWEST INDIANA

CITY           SKY/WX    TMP DP  RH WIND       PRES   REMARKS
GARY /AIRPORT/ SUNNY    N/A N/A N/A W12       29.82S
KNOX *+        PTSUNNY   70  63  78 W8        29.81S
LA PORTE +     PTSUNNY   72  65  78 NW5       29.82S
MICHIGAN CITY+ MOSUNNY   68  63  83 NW5       29.82S
MONTICELLO +   MOSUNNY   73  66  79 W7        29.82S
RENSSELAER +   SUNNY     73  64  73 W9        29.83S
VALPARAISO     PTSUNNY   73  63  70 W7        29.82S

$$

LMZ046-743>745-301700-
SOUTHERN LAKE MICHIGAN

STATION/POSITION TIME  TEMP    WIND        PRES    WAVE
                       AIR SEA DIR/SP/G            HT
                 (UTC) (F)     (DEG/KT/KT) (MB)    (FT)
BURNS HARBOR     1600   67     280/  3/  4 1010.5R
MICHIGAN CITY    1600   64     250/  6/  8   N/A
5NW MICH CITY    1600   64 65  300/  4/  6   N/A     1

$$

INZ004-005-014>016-021>024-301700-
NORTH CENTRAL INDIANA

CITY           SKY/WX    TMP DP  RH WIND       PRES   REMARKS
ELKHART        CLOUDY    68  64  88 W8        29.81S
GOSHEN         CLOUDY    67  63  87 SW6       29.81S
LOGANSPORT +   MOSUNNY   72  61  68 W8        29.83S
PERU/GRISSOM   SUNNY     73  66  77 W10       29.82S
ROCHESTER +    PTSUNNY   73  66  78 W8        29.82S
SOUTH BEND     CLOUDY    71  64  78 W8        29.81S
WARSAW +         N/A     68  63  83 W8        29.82S

$$

INZ006>009-017-018-025>027-301700-
NORTHEAST INDIANA

CITY           SKY/WX    TMP DP  RH WIND       PRES   REMARKS
ANGOLA *+      CLOUDY    66  57  72 SW3       29.82S
AUBURN +       CLOUDY    64  63  94 CALM      29.83S FOG
FORT WAYNE     CLOUDY    69  63  81 W8        29.83F
HUNTINGTON +   PTSUNNY   69  65  85 SW6       29.83S

$$

INZ028-029-035-036-043>045-051>053-301700-
WEST CENTRAL INDIANA

CITY           SKY/WX    TMP DP  RH WIND       PRES   REMARKS
CRAWFORDSVL +  SUNNY     73  60  64 W9        29.85S
GREENCASTLE +  MOSUNNY   73  61  64 CALM      29.86S
LAFAYETTE      MOSUNNY   74  63  68 W10       29.82F
TERRE HAUTE    MOSUNNY   78  67  68 W5        29.85F

$$

INZ030>032-037>040-046>048-054>057-064-065-301700-
CENTRAL INDIANA

CITY           SKY/WX    TMP DP  RH WIND       PRES   REMARKS
ANDERSON       PTSUNNY   72  63  73 SW8       29.86S
CP ATTERBURY + PTSUNNY   73  64  73 W7        29.87S THUNDER
COLUMBUS       TSTM      73  64  73 NW9       29.87S FOG
FRANKFORT +    SUNNY     74  65  72 SW10      29.86S
GREENWOOD *+   PTSUNNY   73  63  68 W8        29.86F
INDIANAPOLIS   MOSUNNY   74  63  68 W9        29.84F
-EAGLE CREEK   SUNNY     74  63  68 W5        29.84S
KOKOMO *+      MOSUNNY   73  64  73 W14       29.82S
MARION +       PTSUNNY   70  64  82 W9        29.84S
MT COMFORT *+  PTSUNNY   73  59  60 W9        29.85F
SHELBYVILLE    CLOUDY    74  66  76 W8        29.86R
ZIONSVILLE +   MOSUNNY   75  61  60 W7        29.85S

$$

INZ033-034-041-042-049-050-058-059-301700-
EAST CENTRAL INDIANA

CITY           SKY/WX    TMP DP  RH WIND       PRES   REMARKS
MUNCIE         CLOUDY    71  64  78 W7        29.85R

$$

INZ060-061-067>069-081>083-085>088-301700-
SOUTHWEST INDIANA

CITY           SKY/WX    TMP DP  RH WIND       PRES   REMARKS
EVANSVILLE     SUNNY     81  68  64 W8        29.90S
HUNTINGBURG *+ MOSUNNY   79  68  69 W7        29.90S
WASHINGTON +   MOSUNNY   78  67  68 W5        29.88R

$$

INZ062-063-066-070>080-084-089>092-301700-
SOUTH CENTRAL AND SOUTHEAST INDIANA

CITY           SKY/WX    TMP DP  RH WIND       PRES   REMARKS
BLOOMINGTON    PTSUNNY   76  68  76 W7        29.87S
MADISON *+     PTSUNNY   77  64  65 SW10      29.91S
NORTH VERNON + MOSUNNY   79  66  65 SW8       29.88F
SEYMOUR +      MOSUNNY   79  68  69 SW10      29.88S

$$



USA.gov is the U.S. government's official web portal to all federal, state and local government web resources and services.